SCP
0 0 0 0 0 0 0 0 0 0 0 0 0 0 0 0 0 0 0 0 0 -0 -0 0 0 0 0 0 0 0 0 0 0 0 -0 -0 -0 -0 -0 -0 -0 -0 -0 -0 -0 -0 -0 -0 -0
0 0 0 0 0 0 0 0 0 0 0 0 0 0 0 0 0 0 0 0 0 -0 -0 0 0 0 0 0 0 0 0 0 0 0 0 0 -0 0 -0 -0 -0 -0 -0 -0 -0 -0 0 0 0
-0 0 0 0 0 0 0 0 0 0 0 0 0 0 0 0 0 0 0 0 0 0 0 0 0 0 0 0 0 0 0 0 0 0 0 0 0 0 0 0 0 0 0 0 0 0 0 0 0
0 0 0 0 -0 0 0 0 0 0 0 0 0 0 0 0 0 0 0 0 0 0 0 0 0 0 0 0 0 0 0 0 0 0 0 0 0 0 0 0 0 0 0 0 0 0 0 0 0
0 0 0 0 -0 -0 0 0 0 0 0 0 0 0 0 0 0 0 0 0 0 0 0 0 0 0 0 0 0 0 0 0 0 0 0 0 0 0 0 0 0 0 0 0 0 0 0 0 0
0 0 0 0 0 0 0 0 0 0 0 0 0 0 0 0 0 0 0 0 0 0 0 0 0 0 0 0 0 0 0 0 0 0 0 0 0 0 0 0 0 0 0 0 0 0 0 0 0
0 0 0 0 0 0 0 0 0 0 0 0 0 0 0 0 0 0 0 0 0 0 0 0 0 0 0 0 0 0 0 0 0 0 0 0 0 0 0 0 0 0 0 0 0 0 0 0 0
0 0 0 0 0 0 0 0 0 0 0 0 0 0 0 0 0 -0 0 0 0 0 0 0 0 0 0 0 0 0 0 0 0 0 0 0 0 0 0 0 0 0 0 0 0 0 0 0 0
0 0 0 0 0 0 0 0 0 0 0 0 0 0 0 0 0 -0 -0 0 0 0 0 0 0 0 0 0 0 0 0 0 0 0 0 0 0 0 0 0 0 0 0 0 0 0 0 0 0
0 0 0 0 0 0 0 0 0 0 0 0 0 0 0 0 0 0 0 0 0 0 0 0 0 0 0 0 0 0 0 0 0 0 0 0 0 0 0 0 0 0 0 0 0 0 0 0 0
0 0 0 0 0 0 0 0 0 0 0 0 0 0 0 0 0 0 0 0 0 0 0 0 0 0 0 0 0 0 0 0 0 0 0 0 0 0 0 0 0 0 0 0 0 0 0 0 0
0 0 0 0 0 0 0 0 0 0 0 0 0 0 0 0 0 0 0 0 0 0 0 0 0 0 0 0 0 0 0 0 0 0 0 0 0 0 0 0 0 0 0 0 0 0 0 0 0
0 0 0 0 0 0 0 0 0 0 0 0 0 0 0 0 0 0 0 0 0 0 0 0 0 0 0 0 0 0 0 0 0 0 0 0 0 0 0 0 0 0 0 0 0 0 0 0 0
0 0 0 0 0 0 0 0 0 0 0 0 0 0 0 0 0 0 0 0 0 0 0 0 0 0 0 0 0 0 0 0 0 0 0 0 0 0 0 0 0 0 0 0 0 0 0 0 0
0 0 0 0 0 0 0 0 0 0 0 0 0 0 0 0 0 0 0 0 0 0 0 0 0 0 0 0 0 0 0 0 0 0 0 0 0 0 0 0 0 0 0 0 0 0 0 0 0
0 0 0 0 0 0 0 0 0 0 0 0 0 0 0 0 0 0 0 0 0 0 0 0 0 0 0 0 0 0 0 0 0 0 0 0 0 0 0 0 0 0 0 0 0 0 0 0 0
0 0 0 0 0 0 0 0 0 0 0 0 0 0 0 0 0 0 0 0 0 0 0 0 0 0 0 0 0 0 0 0 0 0 0 0 0 0 0 0 0 0 0 0 0 0 0 0 0
0 0 0 0 0 0 0 0 0 0 0 0 0 0 0 0 0 0 0 0 0 0 0 0 0 0 0 0 0 0 0 0 0 0 0 0 0 0 0 0 0 0 0 0 0 0 0 0 0
0 0 0 0 0 0 0 0 0 0 -0 -0 -0 0 0 0 0 0 0 0 0 0 0 0 0 0 0 0 0 0 0 0 0 0 0 0 0 0 0 0 0 0 0 0 0 0 0 0 0
0 0 0 0 0 0 0 0 -0 -0 -0 -0 -0 -0 0 0 0 0 0 0 0 0 0 0 0 0 0 0 0 0 0 0 0 0 0 0 0 0 0 0 0 0 0 0 0 0 0 0 0
0 0 0 0 0 0 0 0 0 -0 -0 -0 0 0 0 0 0 0 0 0 0 0 0 0 0 0 0 0 0 0 0 0 0 0 0 0 0 0 0 0 0 0 0 0 0 0 0 0 0
0 0 0 0 0 0 0 0 -0 -0 0 0 0 0 0 0 0 0 0 0 0 0 0 0 0 0 0 0 0 0 0 0 0 0 0 0 0 0 0 0 0 0 0 0 0 0 0 0 0
0 0 0 0 0 0 0 0 0 0 0 0 0 0 0 0 0 0 0 -0 -0 0 0 0 0 0 0 0 0 0 0 0 0 0 0 0 0 0 0 0 0 0 0 0 0 0 0 0 0
-0 -0 -0 -0 0 0 -0 0 0 0 0 0 -0 0 0 0 0 0 0 -0 -0 0 0 0 0 0 0 0 0 0 0 0 0 0 0 0 0 0 0 0 0 0 0 0 0 0 0 0 0
0 0 -0 0 0 0 0 0 0 -0 -0 0 0 -0 -0 -0 0 -0 -0 -0 0 0 -0 0 0 0 0 0 0 0 0 0 0 0 0 0 0 0 0 0 0 0 0 0 0 0 0 0 0
-0 0 0 0 0 0 0 0 0 -0 0 -0 -0 -0 -0 -0 0 0 0 0 0 0 0 0 0 0 0 0 0 0 0 0 0 0 0 0 0 0 0 0 0 0 0 0 0 0 0 0 0
0 0 0 0 0 0 0 0 0 0 -0 -0 -0 0 0 0 0 0 0 0 0 0 0 0 0 0 0 0 0 0 0 0 0 0 0 0 0 0 0 0 0 0 0 0 0 0 0 0 0
0 0 0 0 0 0 0 0 0 -0 -0 -0 -0 0 0 0 -0 0 0 0 0 0 0 0 0 0 0 0 0 0 0 0 0 0 0 0 0 0 0 0 0 0 0 0 0 0 0 0 0
0 0 0 0 0 0 0 0 0 -0 -0 -0 -0 0 0 0 0 0 0 0 0 0 0 0 0 0 0 0 0 0 0 0 0 0 0 0 0 0 0 0 0 0 0 0 0 0 0 0 0
0 0 0 0 0 0 0 -0 0 0 -0 -0 -0 0 0 -0 -0 0 -0 0 0 0 0 0 0 0 0 0 0 0 0 0 0 0 0 0 0 0 0 0 0 0 0 0 0 0 0 0 0
Wind_Speed_500mb
15 19 14 12 13 13 25 26 16 14 11 3 2 8 8 11 11 8 5 20 30 44 45 49 45 42 40 37 35 29 26 22 20 23 19 19 21 23 24 24 24 22 21 20 20 21 22 23 24
15 18 13 17 15 24 23 25 18 20 21 5 14 15 17 20 6 2 3 20 35 46 45 51 47 43 42 40 36 33 29 25 24 27 24 23 24 24 24 24 24 22 21 19 19 20 22 23 25
16 12 18 9 22 30 28 11 14 26 6 16 11 6 18 7 3 1 9 21 37 46 44 47 48 45 44 41 37 33 31 29 28 29 28 25 24 22 24 26 25 24 23 21 20 23 23 23 23
8 18 17 20 33 24 24 23 3 24 13 11 11 17 6 8 1 1 8 22 38 46 43 52 51 49 48 45 39 35 32 33 37 34 31 29 27 26 25 25 24 24 23 21 21 21 24 24 23
13 19 21 28 34 34 30 15 19 22 24 17 7 24 10 3 6 12 11 23 38 40 43 50 54 51 51 48 41 35 35 35 37 38 35 35 30 29 27 28 29 23 22 23 21 20 22 20 20
23 17 26 30 36 34 28 26 27 28 34 36 28 33 29 14 13 7 10 23 36 39 41 46 57 56 53 51 42 36 38 37 38 42 38 35 32 31 30 25 28 24 25 23 22 21 19 14 14
27 24 34 40 40 38 30 28 19 30 33 33 34 32 31 11 8 16 14 25 35 40 43 40 56 55 55 53 46 41 38 39 41 43 39 35 31 30 30 27 28 27 25 25 23 20 17 13 20
29 21 45 39 36 45 37 41 41 35 39 33 19 14 21 9 21 25 14 26 40 41 48 48 51 57 57 56 51 47 41 41 42 39 39 35 36 35 33 34 32 30 27 24 23 21 19 14 17
18 17 29 40 42 41 39 34 36 32 25 32 27 28 29 14 31 24 18 25 39 47 49 54 52 52 54 56 55 51 45 46 45 43 40 39 41 40 38 39 38 38 30 23 24 21 16 14 18
20 23 32 29 29 27 31 33 34 43 46 48 46 42 34 24 21 21 23 24 42 55 57 55 57 58 55 47 48 54 51 52 50 48 47 45 40 38 40 42 44 42 35 27 25 23 13 9 22
12 32 30 26 18 17 28 33 36 45 43 46 47 45 44 32 27 28 31 34 40 55 63 67 61 66 61 61 54 52 50 50 49 48 50 44 37 41 47 47 48 44 37 35 30 23 14 15 24
18 28 20 21 28 29 33 43 46 49 55 55 59 59 55 53 38 43 44 44 45 55 65 74 72 69 72 66 59 55 53 52 52 50 48 46 45 46 44 48 46 46 40 34 32 30 30 25 28
21 19 20 29 35 38 40 42 46 59 60 60 63 62 60 63 62 60 58 55 54 55 62 70 84 83 77 74 59 55 57 56 53 49 50 48 49 45 43 44 42 42 42 39 31 35 29 26 28
12 24 35 32 30 30 31 33 36 43 41 32 41 52 53 56 61 65 66 62 59 59 62 71 74 88 90 85 68 63 62 58 57 55 58 57 50 45 41 44 43 38 42 39 35 35 31 30 32
19 22 24 4 7 31 29 33 17 2 21 36 37 37 45 52 54 60 64 64 59 68 64 70 77 81 99 98 74 66 65 63 66 61 60 62 54 45 45 53 59 50 45 42 41 37 32 32 35
13 9 11 8 24 11 23 25 10 31 40 57 64 64 60 61 66 63 62 63 63 66 73 74 86 83 87 95 88 75 73 70 69 67 61 63 58 52 52 56 51 48 43 40 44 40 35 34 37
7 15 27 23 13 19 17 43 34 58 59 59 67 70 70 66 61 62 67 65 68 64 64 79 85 91 97 97 102 80 80 73 70 71 66 63 64 67 62 55 51 50 48 46 46 41 37 39 40
22 25 23 29 22 40 41 51 44 55 62 70 75 71 69 66 62 59 63 66 71 72 71 67 88 93 98 91 100 82 81 72 76 73 70 70 74 66 63 61 55 53 53 51 48 44 40 41 41
20 26 31 34 40 33 32 50 51 59 64 64 65 60 60 60 60 53 54 59 65 71 76 83 77 99 101 98 105 86 85 84 82 77 78 76 75 72 68 61 59 55 53 51 50 48 46 47 47
21 28 27 27 22 38 40 55 53 44 47 58 58 58 59 57 50 46 44 48 57 65 68 79 75 91 101 103 103 103 94 98 90 84 84 81 75 76 73 67 64 62 58 54 55 53 50 48 46
19 27 23 35 42 41 34 38 23 43 46 43 53 50 42 43 37 38 37 40 46 59 69 72 83 86 114 110 102 106 87 87 79 85 86 86 83 78 74 69 66 63 60 59 58 56 54 54 51
20 15 28 39 32 17 25 22 24 34 42 43 44 26 34 35 35 39 48 50 46 52 65 77 72 87 102 116 115 123 112 110 113 104 93 93 85 80 72 71 67 63 61 60 58 57 55 52 50
15 25 35 41 33 27 26 12 23 54 45 34 34 42 36 38 45 49 51 58 62 57 55 71 79 83 94 123 129 131 121 118 115 112 101 96 90 87 79 76 69 66 62 61 59 57 58 53 45
26 30 43 22 4 10 23 22 37 49 40 41 43 53 52 53 59 63 69 75 69 71 73 74 80 83 93 102 135 135 131 113 104 113 108 98 95 90 80 76 70 66 64 61 58 54 53 47 40
10 26 11 7 13 27 29 34 44 54 45 43 45 59 62 64 65 73 83 76 80 92 89 83 83 87 92 109 129 133 111 123 126 125 118 113 103 96 85 78 73 68 63 52 47 45 44 41 34
24 6 6 15 23 39 37 21 20 44 53 55 48 57 61 79 80 81 87 100 96 95 91 90 99 89 93 109 108 121 108 128 127 126 124 116 108 98 89 83 74 70 62 50 43 39 38 35 29
4 9 12 13 30 28 18 45 41 32 23 33 58 58 72 78 75 93 103 91 91 90 94 94 94 92 95 104 104 135 129 123 130 127 120 120 106 94 84 79 73 65 60 56 46 42 43 37 32
22 15 7 9 13 28 31 49 26 32 33 43 42 59 77 80 110 100 93 96 96 96 99 89 92 87 96 106 108 94 115 125 126 126 126 117 108 97 91 82 74 70 65 57 57 54 43 33 25
9 10 13 16 13 15 23 29 14 24 45 34 52 75 76 92 92 94 96 87 89 85 68 68 82 84 93 106 100 111 91 123 119 125 124 117 105 102 91 85 81 75 73 72 70 54 43 39 28
16 22 22 12 18 25 26 42 44 36 42 49 63 71 92 91 98 94 82 80 73 59 34 40 57 74 86 94 107 112 106 111 116 115 121 114 110 94 92 86 77 73 77 71 58 49 46 31 29
Wind_Direction_500mb
320 331 317 270 249 233 261 248 273 271 244 113 295 251 265 316 309 343 183 184 166 168 185 182 184 187 189 196 199 190 193 193 192 164 173 169 157 143 137 136 134 135 128 125 124 124 122 116 115
321 334 290 271 250 250 249 242 225 261 274 16 281 279 263 274 213 224 138 184 171 171 188 184 188 194 196 195 204 198 197 200 192 166 167 163 155 148 143 143 134 133 133 128 124 126 123 117 112
309 312 282 243 247 254 265 7 310 270 342 280 268 252 299 307 62 103 229 176 172 175 187 187 190 195 198 196 191 189 195 197 181 174 171 163 158 155 156 147 143 143 138 135 127 123 125 119 114
287 250 245 248 257 265 285 298 303 307 248 248 293 273 208 254 37 135 217 178 175 177 183 197 192 193 196 198 197 193 198 195 176 180 167 173 166 169 157 152 152 145 139 135 117 120 126 120 116
256 256 256 249 253 262 277 265 288 282 281 283 321 282 260 321 285 278 266 183 180 183 182 203 193 193 198 202 202 203 204 199 185 174 179 176 172 169 162 164 162 145 139 132 131 134 122 121 120
250 245 250 253 255 249 249 254 270 275 274 273 273 276 276 269 310 274 229 192 187 188 190 208 195 196 200 203 204 206 202 201 195 182 186 182 179 176 180 157 147 150 137 137 140 129 137 124 131
242 254 251 265 270 268 264 262 253 277 275 276 291 287 274 293 311 286 237 204 190 196 192 198 194 199 199 204 209 207 207 205 200 192 194 188 186 180 170 156 147 155 159 154 155 155 146 133 134
250 252 260 258 262 265 268 270 263 260 269 276 285 255 257 0 320 319 269 213 192 197 201 196 193 201 204 207 213 211 213 213 209 198 195 189 185 176 167 162 161 165 171 167 169 167 166 155 150
239 245 249 255 260 271 269 263 265 269 265 270 256 260 279 304 288 294 291 225 207 201 208 207 198 203 203 209 210 211 217 218 213 207 201 191 184 180 176 170 170 173 172 176 184 178 174 178 158
231 238 256 273 302 321 323 303 286 288 280 275 266 263 260 250 246 255 248 239 220 213 203 208 209 207 203 205 214 211 211 212 209 204 201 195 189 190 179 181 176 178 178 177 189 178 195 209 164
268 250 284 306 350 319 298 286 281 278 271 272 279 276 274 268 251 241 236 233 238 232 222 211 210 211 208 198 207 205 207 205 204 205 204 189 195 196 183 188 180 180 183 190 184 196 193 179 161
270 254 288 299 305 302 290 290 280 271 275 282 280 279 276 268 260 254 253 251 238 226 234 218 206 213 214 206 204 206 205 205 206 209 206 188 196 204 193 185 181 184 192 198 197 195 188 182 175
253 292 297 289 292 289 288 278 280 277 277 276 272 269 268 270 268 263 257 253 249 232 228 231 217 215 216 210 205 203 201 207 202 204 205 202 198 199 202 190 191 187 193 193 194 196 209 198 192
335 291 289 292 290 294 287 291 286 275 286 293 281 274 272 274 271 264 257 253 246 238 230 232 232 218 219 218 208 204 205 208 202 201 206 202 200 199 203 193 197 193 200 197 200 210 202 198 194
290 293 290 264 298 309 340 283 254 158 292 289 291 284 280 276 274 267 263 256 253 243 241 235 230 223 222 223 209 205 206 204 205 200 207 199 197 205 200 201 197 202 208 212 214 206 202 202 194
300 284 333 147 331 323 339 291 337 320 301 297 292 287 282 276 266 263 259 259 260 258 240 238 234 227 218 223 216 208 208 205 207 199 201 204 199 203 203 207 202 208 214 219 214 209 202 201 195
204 323 319 322 305 312 317 296 292 300 294 293 290 287 285 281 274 265 259 256 253 259 254 239 238 239 226 229 221 208 209 208 203 203 203 203 204 208 204 202 207 213 215 217 213 210 206 197 191
310 312 307 303 314 311 304 286 293 299 294 290 289 286 284 282 279 275 267 261 254 251 253 251 236 236 228 227 216 207 206 205 204 201 205 206 209 210 205 207 212 215 219 215 213 211 201 201 198
295 295 298 302 307 309 298 293 296 299 293 286 288 289 287 285 290 284 274 269 264 258 250 244 246 229 228 222 213 202 199 201 208 201 206 209 210 204 210 211 210 217 220 218 217 211 206 200 203
296 293 289 293 303 310 295 294 291 286 285 296 295 293 292 292 287 287 284 274 267 263 258 249 246 231 229 222 221 206 205 208 206 203 208 210 207 208 210 213 216 219 219 217 220 218 208 208 207
295 301 309 304 311 298 303 296 312 304 290 300 296 288 291 289 289 293 299 291 276 264 261 255 247 238 227 224 217 212 201 203 196 205 209 207 210 212 212 216 217 220 220 223 221 219 216 216 200
305 354 307 302 316 309 338 294 308 296 309 301 301 309 293 290 288 293 298 297 293 280 268 253 252 243 226 224 214 208 201 203 209 212 207 207 209 210 214 216 220 223 223 222 219 217 217 217 215
282 319 301 291 287 300 293 250 285 300 307 313 316 313 293 283 285 294 300 298 287 282 280 267 251 246 236 213 209 212 214 222 214 209 208 205 206 208 212 216 218 219 217 217 217 215 214 218 222
291 295 294 272 307 246 254 252 300 299 302 316 300 306 298 298 297 292 299 304 284 282 284 268 259 242 238 231 206 208 212 212 204 209 203 204 206 207 210 214 217 217 214 212 218 218 214 216 215
260 329 312 276 286 284 298 309 271 289 295 318 310 306 304 295 301 296 298 295 283 283 277 267 258 246 233 231 207 212 213 209 211 213 205 203 205 206 209 212 214 215 212 211 210 209 209 209 211
307 296 315 305 311 300 301 260 275 309 298 300 318 314 314 310 300 295 294 294 285 280 271 262 258 245 231 226 220 219 216 209 218 214 208 205 207 207 209 210 212 213 209 194 195 204 203 203 195
110 247 335 274 264 275 268 278 294 297 301 320 320 310 312 307 308 304 300 294 287 279 271 259 249 239 223 218 219 205 206 208 213 211 211 205 205 207 205 208 209 203 199 193 192 201 192 181 175
238 351 277 237 291 302 289 297 286 315 318 314 310 314 316 322 312 307 304 300 294 290 280 260 238 229 216 212 215 203 197 204 211 211 209 203 201 206 202 199 202 192 186 179 176 180 178 179 171
211 253 217 263 264 295 306 307 311 318 307 311 318 321 327 314 310 310 307 303 302 300 276 236 225 216 208 204 206 211 203 201 211 211 204 198 202 195 195 197 195 194 188 184 187 200 197 188 187
261 269 280 270 285 285 294 276 291 282 326 319 321 330 320 318 316 314 313 313 315 307 295 208 204 203 201 192 195 201 197 203 205 207 203 198 189 191 195 194 195 198 190 189 193 180 176 193 219
Wind_Speed_850mb
15 19 14 12 13 13 25 26 16 14 11 3 2 8 8 11 11 8 5 20 30 44 45 49 45 42 40 37 35 29 26 22 20 23 19 19 21 23 24 24 24 22 21 20 20 21 22 23 24
15 18 13 17 15 24 23 25 18 20 21 5 14 15 17 20 6 2 3 20 35 46 45 51 47 43 42 40 36 33 29 25 24 27 24 23 24 24 24 24 24 22 21 19 19 20 22 23 25
16 12 18 9 22 30 28 11 14 26 6 16 11 6 18 7 3 1 9 21 37 46 44 47 48 45 44 41 37 33 31 29 28 29 28 25 24 22 24 26 25 24 23 21 20 23 23 23 23
8 18 17 20 33 24 24 23 3 24 13 11 11 17 6 8 1 1 8 22 38 46 43 52 51 49 48 45 39 35 32 33 37 34 31 29 27 26 25 25 24 24 23 21 21 21 24 24 23
13 19 21 28 34 34 30 15 19 22 24 17 7 24 10 3 6 12 11 23 38 40 43 50 54 51 51 48 41 35 35 35 37 38 35 35 30 29 27 28 29 23 22 23 21 20 22 20 20
23 17 26 30 36 34 28 26 27 28 34 36 28 33 29 14 13 7 10 23 36 39 41 46 57 56 53 51 42 36 38 37 38 42 38 35 32 31 30 25 28 24 25 23 22 21 19 14 14
27 24 34 40 40 38 30 28 19 30 33 33 34 32 31 11 8 16 14 25 35 40 43 40 56 55 55 53 46 41 38 39 41 43 39 35 31 30 30 27 28 27 25 25 23 20 17 13 20
29 21 45 39 36 45 37 41 41 35 39 33 19 14 21 9 21 25 14 26 40 41 48 48 51 57 57 56 51 47 41 41 42 39 39 35 36 35 33 34 32 30 27 24 23 21 19 14 17
18 17 29 40 42 41 39 34 36 32 25 32 27 28 29 14 31 24 18 25 39 47 49 54 52 52 54 56 55 51 45 46 45 43 40 39 41 40 38 39 38 38 30 23 24 21 16 14 18
20 23 32 29 29 27 31 33 34 43 46 48 46 42 34 24 21 21 23 24 42 55 57 55 57 58 55 47 48 54 51 52 50 48 47 45 40 38 40 42 44 42 35 27 25 23 13 9 22
12 32 30 26 18 17 28 33 36 45 43 46 47 45 44 32 27 28 31 34 40 55 63 67 61 66 61 61 54 52 50 50 49 48 50 44 37 41 47 47 48 44 37 35 30 23 14 15 24
18 28 20 21 28 29 33 43 46 49 55 55 59 59 55 53 38 43 44 44 45 55 65 74 72 69 72 66 59 55 53 52 52 50 48 46 45 46 44 48 46 46 40 34 32 30 30 25 28
21 19 20 29 35 38 40 42 46 59 60 60 63 62 60 63 62 60 58 55 54 55 62 70 84 83 77 74 59 55 57 56 53 49 50 48 49 45 43 44 42 42 42 39 31 35 29 26 28
12 24 35 32 30 30 31 33 36 43 41 32 41 52 53 56 61 65 66 62 59 59 62 71 74 88 90 85 68 63 62 58 57 55 58 57 50 45 41 44 43 38 42 39 35 35 31 30 32
19 22 24 4 7 31 29 33 17 2 21 36 37 37 45 52 54 60 64 64 59 68 64 70 77 81 99 98 74 66 65 63 66 61 60 62 54 45 45 53 59 50 45 42 41 37 32 32 35
13 9 11 8 24 11 23 25 10 31 40 57 64 64 60 61 66 63 62 63 63 66 73 74 86 83 87 95 88 75 73 70 69 67 61 63 58 52 52 56 51 48 43 40 44 40 35 34 37
7 15 27 23 13 19 17 43 34 58 59 59 67 70 70 66 61 62 67 65 68 64 64 79 85 91 97 97 102 80 80 73 70 71 66 63 64 67 62 55 51 50 48 46 46 41 37 39 40
22 25 23 29 22 40 41 51 44 55 62 70 75 71 69 66 62 59 63 66 71 72 71 67 88 93 98 91 100 82 81 72 76 73 70 70 74 66 63 61 55 53 53 51 48 44 40 41 41
20 26 31 34 40 33 32 50 51 59 64 64 65 60 60 60 60 53 54 59 65 71 76 83 77 99 101 98 105 86 85 84 82 77 78 76 75 72 68 61 59 55 53 51 50 48 46 47 47
21 28 27 27 22 38 40 55 53 44 47 58 58 58 59 57 50 46 44 48 57 65 68 79 75 91 101 103 103 103 94 98 90 84 84 81 75 76 73 67 64 62 58 54 55 53 50 48 46
19 27 23 35 42 41 34 38 23 43 46 43 53 50 42 43 37 38 37 40 46 59 69 72 83 86 114 110 102 106 87 87 79 85 86 86 83 78 74 69 66 63 60 59 58 56 54 54 51
20 15 28 39 32 17 25 22 24 34 42 43 44 26 34 35 35 39 48 50 46 52 65 77 72 87 102 116 115 123 112 110 113 104 93 93 85 80 72 71 67 63 61 60 58 57 55 52 50
15 25 35 41 33 27 26 12 23 54 45 34 34 42 36 38 45 49 51 58 62 57 55 71 79 83 94 123 129 131 121 118 115 112 101 96 90 87 79 76 69 66 62 61 59 57 58 53 45
26 30 43 22 4 10 23 22 37 49 40 41 43 53 52 53 59 63 69 75 69 71 73 74 80 83 93 102 135 135 131 113 104 113 108 98 95 90 80 76 70 66 64 61 58 54 53 47 40
10 26 11 7 13 27 29 34 44 54 45 43 45 59 62 64 65 73 83 76 80 92 89 83 83 87 92 109 129 133 111 123 126 125 118 113 103 96 85 78 73 68 63 52 47 45 44 41 34
24 6 6 15 23 39 37 21 20 44 53 55 48 57 61 79 80 81 87 100 96 95 91 90 99 89 93 109 108 121 108 128 127 126 124 116 108 98 89 83 74 70 62 50 43 39 38 35 29
4 9 12 13 30 28 18 45 41 32 23 33 58 58 72 78 75 93 103 91 91 90 94 94 94 92 95 104 104 135 129 123 130 127 120 120 106 94 84 79 73 65 60 56 46 42 43 37 32
22 15 7 9 13 28 31 49 26 32 33 43 42 59 77 80 110 100 93 96 96 96 99 89 92 87 96 106 108 94 115 125 126 126 126 117 108 97 91 82 74 70 65 57 57 54 43 33 25
9 10 13 16 13 15 23 29 14 24 45 34 52 75 76 92 92 94 96 87 89 85 68 68 82 84 93 106 100 111 91 123 119 125 124 117 105 102 91 85 81 75 73 72 70 54 43 39 28
16 22 22 12 18 25 26 42 44 36 42 49 63 71 92 91 98 94 82 80 73 59 34 40 57 74 86 94 107 112 106 111 116 115 121 114 110 94 92 86 77 73 77 71 58 49 46 31 29
Wind_Direction_850mb
320 331 317 270 249 233 261 248 273 271 244 113 295 251 265 316 309 343 183 184 166 168 185 182 184 187 189 196 199 190 193 193 192 164 173 169 157 143 137 136 134 135 128 125 124 124 122 116 115
321 334 290 271 250 250 249 242 225 261 274 16 281 279 263 274 213 224 138 184 171 171 188 184 188 194 196 195 204 198 197 200 192 166 167 163 155 148 143 143 134 133 133 128 124 126 123 117 112
309 312 282 243 247 254 265 7 310 270 342 280 268 252 299 307 62 103 229 176 172 175 187 187 190 195 198 196 191 189 195 197 181 174 171 163 158 155 156 147 143 143 138 135 127 123 125 119 114
287 250 245 248 257 265 285 298 303 307 248 248 293 273 208 254 37 135 217 178 175 177 183 197 192 193 196 198 197 193 198 195 176 180 167 173 166 169 157 152 152 145 139 135 117 120 126 120 116
256 256 256 249 253 262 277 265 288 282 281 283 321 282 260 321 285 278 266 183 180 183 182 203 193 193 198 202 202 203 204 199 185 174 179 176 172 169 162 164 162 145 139 132 131 134 122 121 120
250 245 250 253 255 249 249 254 270 275 274 273 273 276 276 269 310 274 229 192 187 188 190 208 195 196 200 203 204 206 202 201 195 182 186 182 179 176 180 157 147 150 137 137 140 129 137 124 131
242 254 251 265 270 268 264 262 253 277 275 276 291 287 274 293 311 286 237 204 190 196 192 198 194 199 199 204 209 207 207 205 200 192 194 188 186 180 170 156 147 155 159 154 155 155 146 133 134
250 252 260 258 262 265 268 270 263 260 269 276 285 255 257 0 320 319 269 213 192 197 201 196 193 201 204 207 213 211 213 213 209 198 195 189 185 176 167 162 161 165 171 167 169 167 166 155 150
239 245 249 255 260 271 269 263 265 269 265 270 256 260 279 304 288 294 291 225 207 201 208 207 198 203 203 209 210 211 217 218 213 207 201 191 184 180 176 170 170 173 172 176 184 178 174 178 158
231 238 256 273 302 321 323 303 286 288 280 275 266 263 260 250 246 255 248 239 220 213 203 208 209 207 203 205 214 211 211 212 209 204 201 195 189 190 179 181 176 178 178 177 189 178 195 209 164
268 250 284 306 350 319 298 286 281 278 271 272 279 276 274 268 251 241 236 233 238 232 222 211 210 211 208 198 207 205 207 205 204 205 204 189 195 196 183 188 180 180 183 190 184 196 193 179 161
270 254 288 299 305 302 290 290 280 271 275 282 280 279 276 268 260 254 253 251 238 226 234 218 206 213 214 206 204 206 205 205 206 209 206 188 196 204 193 185 181 184 192 198 197 195 188 182 175
253 292 297 289 292 289 288 278 280 277 277 276 272 269 268 270 268 263 257 253 249 232 228 231 217 215 216 210 205 203 201 207 202 204 205 202 198 199 202 190 191 187 193 193 194 196 209 198 192
335 291 289 292 290 294 287 291 286 275 286 293 281 274 272 274 271 264 257 253 246 238 230 232 232 218 219 218 208 204 205 208 202 201 206 202 200 199 203 193 197 193 200 197 200 210 202 198 194
290 293 290 264 298 309 340 283 254 158 292 289 291 284 280 276 274 267 263 256 253 243 241 235 230 223 222 223 209 205 206 204 205 200 207 199 197 205 200 201 197 202 208 212 214 206 202 202 194
300 284 333 147 331 323 339 291 337 320 301 297 292 287 282 276 266 263 259 259 260 258 240 238 234 227 218 223 216 208 208 205 207 199 201 204 199 203 203 207 202 208 214 219 214 209 202 201 195
204 323 319 322 305 312 317 296 292 300 294 293 290 287 285 281 274 265 259 256 253 259 254 239 238 239 226 229 221 208 209 208 203 203 203 203 204 208 204 202 207 213 215 217 213 210 206 197 191
310 312 307 303 314 311 304 286 293 299 294 290 289 286 284 282 279 275 267 261 254 251 253 251 236 236 228 227 216 207 206 205 204 201 205 206 209 210 205 207 212 215 219 215 213 211 201 201 198
295 295 298 302 307 309 298 293 296 299 293 286 288 289 287 285 290 284 274 269 264 258 250 244 246 229 228 222 213 202 199 201 208 201 206 209 210 204 210 211 210 217 220 218 217 211 206 200 203
296 293 289 293 303 310 295 294 291 286 285 296 295 293 292 292 287 287 284 274 267 263 258 249 246 231 229 222 221 206 205 208 206 203 208 210 207 208 210 213 216 219 219 217 220 218 208 208 207
295 301 309 304 311 298 303 296 312 304 290 300 296 288 291 289 289 293 299 291 276 264 261 255 247 238 227 224 217 212 201 203 196 205 209 207 210 212 212 216 217 220 220 223 221 219 216 216 200
305 354 307 302 316 309 338 294 308 296 309 301 301 309 293 290 288 293 298 297 293 280 268 253 252 243 226 224 214 208 201 203 209 212 207 207 209 210 214 216 220 223 223 222 219 217 217 217 215
282 319 301 291 287 300 293 250 285 300 307 313 316 313 293 283 285 294 300 298 287 282 280 267 251 246 236 213 209 212 214 222 214 209 208 205 206 208 212 216 218 219 217 217 217 215 214 218 222
291 295 294 272 307 246 254 252 300 299 302 316 300 306 298 298 297 292 299 304 284 282 284 268 259 242 238 231 206 208 212 212 204 209 203 204 206 207 210 214 217 217 214 212 218 218 214 216 215
260 329 312 276 286 284 298 309 271 289 295 318 310 306 304 295 301 296 298 295 283 283 277 267 258 246 233 231 207 212 213 209 211 213 205 203 205 206 209 212 214 215 212 211 210 209 209 209 211
307 296 315 305 311 300 301 260 275 309 298 300 318 314 314 310 300 295 294 294 285 280 271 262 258 245 231 226 220 219 216 209 218 214 208 205 207 207 209 210 212 213 209 194 195 204 203 203 195
110 247 335 274 264 275 268 278 294 297 301 320 320 310 312 307 308 304 300 294 287 279 271 259 249 239 223 218 219 205 206 208 213 211 211 205 205 207 205 208 209 203 199 193 192 201 192 181 175
238 351 277 237 291 302 289 297 286 315 318 314 310 314 316 322 312 307 304 300 294 290 280 260 238 229 216 212 215 203 197 204 211 211 209 203 201 206 202 199 202 192 186 179 176 180 178 179 171
211 253 217 263 264 295 306 307 311 318 307 311 318 321 327 314 310 310 307 303 302 300 276 236 225 216 208 204 206 211 203 201 211 211 204 198 202 195 195 197 195 194 188 184 187 200 197 188 187
261 269 280 270 285 285 294 276 291 282 326 319 321 330 320 318 316 314 313 313 315 307 295 208 204 203 201 192 195 201 197 203 205 207 203 198 189 191 195 194 195 198 190 189 193 180 176 193 219